Location: Presov
(49.0000°N, 21.2500°E)
Time: 23:14:10
(UTC+02:00)

Envisat - Pass Details

Date: 10 June 2023
Orbit: 763 x 764 km, 98.2° (Epoch: 22 September)

Event Time Altitude Azimuth Distance (km) Brightness Sun altitude
Rises 03:23:14 0° 25° (NNE) 3,241 8.1 -8.8°
Reaches altitude 10° 03:26:05 10° 41° (NE) 2,309 7.2 -8.5°
Maximum altitude 03:29:57 22° 91° (E) 1,647 5.3 -8.1°
Drops below altitude 10° 03:33:48 10° 141° (SE) 2,297 5.4 -7.7°
Sets 03:36:37 0° 156° (SSE) 3,218 6.0 -7.4°
